Location: Newark
(40.7060°N, 73.9980°W)
Time: 13:35:04
(UTC+00:00)

X-37B - Visible Passes

Search period start: 08 March 2021 00:00
Search period end: 18 March 2021 00:00
Orbit: 383 x 391 km, 45.0° (Epoch: 27 February)

Date Brightness Start Highest point End Pass type
(mag) Time Alt. Az. Time Alt. Az. Time Alt. Az.
10 Mar 2.7 00:12:03 10° S 00:13:15 15° SSE 00:13:15 15° SSE visible
11 Mar 2.4 00:48:57 10° SW 00:50:31 25° SW 00:50:31 25° SW visible
11 Mar 1.7 23:50:59 10° SSW 23:53:49 29° SSE 23:55:19 19° ESE visible
12 Mar 3.8 01:27:09 10° W 01:27:39 14° W 01:27:39 14° W visible
13 Mar 0.5 00:28:43 10° WSW 00:31:56 90° NNW 00:32:19 67° ENE visible
13 Mar 0.9 23:30:28 10° SW 23:33:35 53° SSE 23:36:44 10° ENE visible
14 Mar 2.6 01:07:13 10° W 01:09:11 30° WNW 01:09:11 30° WNW visible
15 Mar 1.0 00:08:40 10° W 00:11:50 58° NNW 00:13:39 23° ENE visible
15 Mar 4.2 01:45:49 10° WNW 01:45:56 11° WNW 01:45:56 11° WNW visible
16 Mar 1.7 00:47:17 10° WNW 00:50:19 37° N 00:50:20 37° N visible
16 Mar 1.5 23:48:44 10° W 23:51:49 43° N 23:54:41 12° ENE visible
17 Mar 3.4 01:25:47 10° WNW 01:26:58 19° NW 01:26:58 19° NW visible
